Weather History for Monroe, MI

Change the Weather History Date:

Monday, May 28, 2012

  Actual Average Record
Temperature  
Mean Temperature 80 °F -  
Max Temperature 95 °F 72 °F 95 °F (2012)
Min Temperature 66 °F 53 °F 35 °F (2008)
Cooling Degree Days 16    
Growing Degree Days 30 (Base 50)    
Moisture  
Dew Point 62 °F    
Average Humidity 59    
Maximum Humidity 100    
Minimum Humidity 26    
Precipitation  
Precipitation 0.00 in - - ()
Sea Level Pressure  
Sea Level Pressure 29.85 in    
Wind  
Wind Speed 5 mph (SSW)    
Max Wind Speed 16 mph    
Max Gust Speed 24 mph    
Visibility 9 miles    
Events      
Averages and records for this station are not official NWS values.
T = Trace of Precipitation, MM = Missing Value Source: NWS Daily Summary

Daily Weather History Graph

Daily Weather History Graph

Search for Another Location

Airport:

Trip Planner

Search our weather history database for the weather conditions in past years. The results will help you decide how hot, cold, wet, or windy it might be!

Date:

Astronomy

May. 28, 2012 Rise Set
Actual Time 6:02 AM EDT 8:59 PM EDT
Civil Twilight 5:29 AM EDT 9:33 PM EDT
Nautical Twilight 4:47 AM EDT 10:15 PM EDT
Astronomical Twilight 3:58 AM EDT 11:05 PM EDT
Moon 1:16 PM EDT (5/28) 1:32 AM EDT (5/28)
Length of Visible Light 16h 03m
Length of Day
14h 57m
Waxing Crescent, 48% of the Moon is Illuminated
May 28
Waxing Crescent
May 28
First Quarter
Jun 4
Full
Jun 11
Last Quarter
Jun 19
New

Hourly Weather History & Observations

Time (EDT) Temp. Heat Index Dew Point Humidity Pressure Visibility Wind Dir Wind Speed Gust Speed Precip Events Conditions
12:13 AM 69.8 °F - 66.2 °F 88% 29.93 in 7.0 mi East 3.5 mph - N/A   Clear
12:34 AM 69.8 °F - 66.2 °F 88% 29.92 in 10.0 mi Calm Calm - N/A   Clear
12:54 AM 69.8 °F - 66.2 °F 88% 29.91 in 10.0 mi Calm Calm - N/A   Clear
1:14 AM 69.8 °F - 68.0 °F 94% 29.91 in 10.0 mi Calm Calm - N/A   Clear
1:34 AM 69.8 °F - 68.0 °F 94% 29.91 in 10.0 mi Calm Calm - N/A   Clear
1:54 AM 69.8 °F - 68.0 °F 94% 29.91 in 10.0 mi Calm Calm - N/A   Clear
2:14 AM 68.0 °F - 66.2 °F 94% 29.90 in 10.0 mi Calm Calm - N/A   Clear
2:34 AM 68.0 °F - 68.0 °F 100% 29.89 in 10.0 mi Calm Calm - N/A   Clear
2:55 AM 66.2 °F - 66.2 °F 100% 29.89 in 7.0 mi Calm Calm - N/A   Clear
3:15 AM 68.0 °F - 68.0 °F 100% 29.89 in 7.0 mi Calm Calm - N/A   Clear
3:35 AM 68.0 °F - 68.0 °F 100% 29.88 in 7.0 mi Calm Calm - N/A   Clear
3:55 AM 66.2 °F - 66.2 °F 100% 29.88 in 7.0 mi Calm Calm - N/A   Clear
4:15 AM 66.2 °F - 66.2 °F 100% 29.88 in 7.0 mi Calm Calm - N/A   Clear
4:35 AM 66.2 °F - 66.2 °F 100% 29.89 in 7.0 mi South 3.5 mph - N/A   Clear
4:56 AM 68.0 °F - 68.0 °F 100% 29.89 in 7.0 mi Calm Calm - N/A   Clear
5:16 AM 66.2 °F - 66.2 °F 100% 29.90 in 7.0 mi Calm Calm - N/A   Clear
5:36 AM 66.2 °F - 66.2 °F 100% 29.90 in 5.0 mi Calm Calm - N/A   Clear
5:51 AM 66.2 °F - 66.2 °F 100% 29.91 in 4.0 mi Calm Calm - N/A   Clear
6:11 AM 66.2 °F - 66.2 °F 100% 29.91 in 5.0 mi Calm Calm - N/A   Clear
6:31 AM 66.2 °F - 66.2 °F 100% 29.92 in 5.0 mi Calm Calm - N/A   Clear
6:51 AM 66.2 °F - 66.2 °F 100% 29.92 in 5.0 mi Calm Calm - N/A   Clear
7:12 AM 68.0 °F - 68.0 °F 100% 29.93 in 5.0 mi Calm Calm - N/A   Clear
7:32 AM 71.6 °F - 71.6 °F 100% 29.94 in 5.0 mi Calm Calm - N/A   Clear
8:12 AM 75.2 °F - 71.6 °F 89% 29.94 in 5.0 mi South 3.5 mph - N/A   Haze
8:32 AM 77.0 °F - 71.6 °F 83% 29.94 in 7.0 mi South 4.6 mph - N/A   Clear
8:52 AM 78.8 °F - 69.8 °F 74% 29.94 in 7.0 mi SSW 5.8 mph - N/A   Clear
9:12 AM 80.6 °F 83.9 °F 69.8 °F 70% 29.93 in 7.0 mi SSW 5.8 mph - N/A   Clear
9:33 AM 80.6 °F 83.2 °F 68.0 °F 65% 29.93 in 7.0 mi SSW 8.1 mph - N/A   Clear
9:53 AM 82.4 °F 85.4 °F 68.0 °F 62% 29.92 in 10.0 mi SW 6.9 mph - N/A   Clear
10:13 AM 84.2 °F 86.6 °F 66.2 °F 55% 29.92 in 10.0 mi SSW 9.2 mph - N/A   Clear
10:33 AM 84.2 °F 86.6 °F 66.2 °F 55% 29.92 in 10.0 mi SW 8.1 mph - N/A   Clear
10:53 AM 86.0 °F 88.2 °F 66.2 °F 51% 29.91 in 10.0 mi SW 9.2 mph 16.1 mph N/A   Clear
11:13 AM 87.8 °F 90.4 °F 66.2 °F 49% 29.90 in 10.0 mi SW 11.5 mph - N/A   Clear
11:33 AM 87.8 °F 90.4 °F 66.2 °F 49% 29.89 in 10.0 mi SW 6.9 mph 17.3 mph N/A   Clear
11:54 AM 89.6 °F 90.1 °F 62.6 °F 40% 29.88 in 10.0 mi SSW 10.4 mph - N/A   Clear
12:14 PM 89.6 °F 90.1 °F 62.6 °F 40% 29.88 in 10.0 mi SW 9.2 mph - N/A   Clear
12:34 PM 89.6 °F 90.1 °F 62.6 °F 40% 29.87 in 10.0 mi SW 12.7 mph 17.3 mph N/A   Scattered Clouds
12:54 PM 91.4 °F 91.4 °F 60.8 °F 36% 29.86 in 10.0 mi SW 15.0 mph 18.4 mph N/A   Scattered Clouds
1:14 PM 91.4 °F 91.4 °F 60.8 °F 36% 29.86 in 10.0 mi SW 10.4 mph - N/A   Scattered Clouds
1:34 PM 91.4 °F 91.4 °F 60.8 °F 36% 29.85 in 10.0 mi SW 11.5 mph 20.7 mph N/A   Scattered Clouds
1:54 PM 93.2 °F 92.6 °F 59.0 °F 32% 29.84 in 10.0 mi SSW 11.5 mph 18.4 mph N/A   Scattered Clouds
2:15 PM 93.2 °F 93.3 °F 60.8 °F 34% 29.84 in 10.0 mi SSW 11.5 mph 20.7 mph N/A   Scattered Clouds
2:35 PM 93.2 °F 93.3 °F 60.8 °F 34% 29.83 in 10.0 mi SSW 12.7 mph 20.7 mph N/A   Scattered Clouds
2:55 PM 93.2 °F 91.9 °F 57.2 °F 30% 29.83 in 10.0 mi SW 13.8 mph - N/A   Scattered Clouds
3:15 PM 93.2 °F 92.6 °F 59.0 °F 32% 29.82 in 10.0 mi South 13.8 mph 17.3 mph N/A   Scattered Clouds
3:35 PM 93.2 °F 91.9 °F 57.2 °F 30% 29.81 in 10.0 mi SSW 15.0 mph 23.0 mph N/A   Scattered Clouds
3:55 PM 95.0 °F 93.0 °F 55.4 °F 26% 29.80 in 10.0 mi SW 12.7 mph 24.2 mph N/A   Clear
4:15 PM 95.0 °F 93.0 °F 55.4 °F 26% 29.80 in 10.0 mi SW 15.0 mph 19.6 mph N/A   Clear
4:36 PM 93.2 °F 91.3 °F 55.4 °F 28% 29.79 in 10.0 mi South 16.1 mph 20.7 mph N/A   Clear
4:56 PM 95.0 °F 93.0 °F 55.4 °F 26% 29.78 in 10.0 mi South 15.0 mph 19.6 mph N/A   Clear
5:11 PM 95.0 °F 93.0 °F 55.4 °F 26% 29.78 in 10.0 mi SSW 12.7 mph 19.6 mph N/A   Scattered Clouds
5:31 PM 93.2 °F 91.3 °F 55.4 °F 28% 29.78 in 10.0 mi SW 15.0 mph 20.7 mph N/A   Scattered Clouds
5:51 PM 93.2 °F 91.3 °F 55.4 °F 28% 29.78 in 10.0 mi SSW 15.0 mph 19.6 mph N/A   Scattered Clouds
6:13 PM 93.2 °F 91.3 °F 55.4 °F 28% 29.77 in 10.0 mi SSW 13.8 mph 18.4 mph N/A   Clear
6:33 PM 93.2 °F 91.3 °F 55.4 °F 28% 29.76 in 10.0 mi SW 13.8 mph 17.3 mph N/A   Clear
7:13 PM 93.2 °F 91.3 °F 55.4 °F 28% 29.75 in 10.0 mi SW 10.4 mph - N/A   Clear
7:33 PM 91.4 °F 89.4 °F 55.4 °F 29% 29.75 in 10.0 mi SW 11.5 mph - N/A   Clear
7:54 PM 91.4 °F 89.4 °F 55.4 °F 29% 29.74 in 10.0 mi SW 10.4 mph 18.4 mph N/A   Clear
8:14 PM 91.4 °F 89.4 °F 55.4 °F 29% 29.74 in 10.0 mi SSW 11.5 mph - N/A   Clear
8:34 PM 89.6 °F 87.7 °F 55.4 °F 31% 29.74 in 10.0 mi SSW 8.1 mph - N/A   Clear
8:54 PM 89.6 °F 87.7 °F 55.4 °F 31% 29.73 in 10.0 mi SSW 8.1 mph - N/A   Clear
9:14 PM 87.8 °F 86.1 °F 55.4 °F 33% 29.74 in 10.0 mi SSW 5.8 mph - N/A   Clear
9:34 PM 86.0 °F 84.5 °F 55.4 °F 35% 29.74 in 10.0 mi SSW 4.6 mph - N/A   Clear
9:54 PM 84.2 °F 83.0 °F 55.4 °F 37% 29.75 in 10.0 mi SW 6.9 mph - N/A   Scattered Clouds
10:15 PM 84.2 °F 83.0 °F 55.4 °F 37% 29.76 in 10.0 mi SW 8.1 mph - N/A   Scattered Clouds
10:35 PM 84.2 °F 83.5 °F 57.2 °F 40% 29.77 in 10.0 mi SW 5.8 mph - N/A   Scattered Clouds
10:55 PM 84.2 °F 83.5 °F 57.2 °F 40% 29.77 in 10.0 mi SSW 5.8 mph - N/A   Mostly Cloudy
11:15 PM 84.2 °F 83.5 °F 57.2 °F 40% 29.77 in 10.0 mi SSW 5.8 mph - N/A   Scattered Clouds
11:35 PM 82.4 °F 82.0 °F 57.2 °F 42% 29.77 in 10.0 mi SW 5.8 mph - N/A   Scattered Clouds
11:55 PM 82.4 °F 82.0 °F 57.2 °F 42% 29.77 in 10.0 mi SSW 8.1 mph - N/A   Scattered Clouds